[[{"header":{"parameterUnit":"m.s-1","parameterCategory":1,"la1":30.2991,"la2":30.254,"lo1":-89.0895,"lo2":-89.0444,"dy":0.0017,"dx":0.0017,"nx":28,"ny":28,"refTime":"2024-11-30T03:00:00:Z","depth":0,"parameterNumber":2,"parameterNumberName":"U-component_of_WINDS"},"data":[0,0,0,0,0,0,0,0,0,0,0,0,0,0,0,0,0,0,0,0,0,0,0,0,0,0,0,0,0,0,0,0,0,0,0,0,0,0,0,0,0,0,0,0,0,0,0,0,0,0,0,0,0,0,0,0,0,0,-5.0748,-5.0748,0,-5.0805,-5.0805,-5.0806,-5.0671,-5.0667,-5.0663,-5.0659,-5.0718,-5.0723,-5.0729,0,0,0,0,0,0,0,0,0,0,0,0,0,-5.0524,-5.0528,-5.0748,-5.0748,-5.0749,-5.0804,-5.0805,-5.0806,-5.0672,-5.0667,-5.0662,-5.0657,-5.0716,-5.0722,-5.0729,0,0,0,0,0,0,0,0,0,0,0,0,0,-5.0605,-5.053,-5.0748,-5.0689,-5.0684,-5.0804,-5.0805,-5.0806,-5.0673,-5.0667,-5.066,-5.0654,-5.0714,-5.0722,-5.073,-5.091,0,0,-5.0756,-5.0759,0,0,0,0,0,0,0,0,-5.06,-5.0613,-5.0697,-5.0693,-5.0688,-5.0724,-5.0748,-5.0841,-5.0675,-5.0677,-5.0659,-5.0651,-5.0725,-5.0732,-5.0757,-5.0913,-5.0915,-5.0756,-5.0761,-5.0765,-5.0767,0,0,0,0,0,0,0,-5.0595,-5.061,-5.077,-5.0698,-5.0693,-5.066,-5.0664,-5.0765,-5.0737,-5.0677,-5.0667,-5.0676,-5.0721,-5.0749,-5.0757,-5.0916,-5.0756,-5.0763,-5.0769,-5.0772,-5.1222,-5.1229,0,0,0,0,0,0,-5.0597,-5.0606,-5.0768,-5.0772,-5.0628,-5.0669,-5.0674,-5.0719,-5.0735,-5.0731,-5.0681,-5.0669,-5.0738,-5.0748,-5.0759,-5.0971,-5.0765,-5.0773,-5.0777,-5.1215,-5.1224,-5.1231,0,0,0,0,0,0,-5.0592,-5.0612,-5.0766,-5.0686,-5.0703,-5.068,-5.0732,-5.0724,-5.0751,-5.0738,-5.0733,-5.0715,-5.0733,-5.0747,-5.0873,-5.0971,-5.0776,-5.0784,-5.1207,-5.1218,-5.1228,-5.1397,0,0,0,0,0,0,-5.0587,-5.0612,-5.068,-5.0689,-5.0708,-5.088,-5.0737,-5.0729,-5.0766,-5.0751,-5.0768,-5.0765,-5.0729,-5.0862,-5.0882,-5.0979,-5.079,-5.1198,-5.1212,-5.1224,-5.1382,-5.1412,-5.1437,0,0,0,0,0,-5.0579,-5.0725,-5.0684,-5.0704,-5.0793,-5.0886,-5.0897,-5.0853,-5.0774,-5.0843,-5.0834,-5.0764,-5.0957,-5.0876,-5.0897,-5.0999,-5.1192,-5.1208,-5.1223,-5.137,-5.1406,-5.1436,0,0,0,0,0,0,-5.0729,-5.0725,-5.068,-5.0833,-5.0861,-5.0863,-5.0948,-5.0892,-5.0943,-5.0927,-5.087,-5.0875,-5.1012,-5.1017,-5.0927,-5.1173,-5.1061,-5.1082,-5.1165,-5.1199,-5.1226,-5.1222,-5.0797,0,0,0,0,0,-5.0779,-5.0855,-5.0848,-5.0984,-5.1,-5.0972,-5.1011,-5.0975,-5.1001,-5.1012,-5.1013,-5.1042,-5.1108,-5.1154,-5.1214,-5.1382,-5.1384,-5.1462,-5.1489,-5.1512,-5.1531,-5.162,-5.1655,-5.1283,-5.1283,-5.1282,0,0,-5.0885,-5.0893,-5.0944,-5.1014,-5.1032,-5.1112,-5.0983,-5.1073,-5.1132,-5.1026,-5.1145,-5.1147,-5.1175,-5.1323,-5.1388,-5.1332,-5.1634,-5.1532,-5.155,-5.1556,-5.164,-5.1675,-5.1707,-5.1293,-5.1291,-5.129,0,0,-5.1119,-5.1132,-5.1247,-5.1267,-5.1295,-5.1275,-5.1303,-5.1313,-5.1311,-5.1429,-5.1352,-5.1421,-5.1537,-5.156,-5.1587,-5.183,-5.1768,-5.1851,-5.1994,-5.2082,-5.2111,-5.2137,-5.2225,-5.2257,-5.187,-5.187,-5.1871,0,-5.1247,-5.1365,-5.1314,-5.1409,-5.1443,-5.135,-5.1466,-5.1488,-5.1534,-5.156,-5.1495,-5.1639,-5.1652,-5.1804,-5.1863,-5.1888,-5.1918,-5.185,-5.2111,-5.2137,-5.216,-5.2243,-5.2276,-5.188,-5.1879,-5.1878,-5.1877,0,-5.1522,-5.1604,-5.1694,-5.1741,-5.1784,-5.189,-5.1855,-5.1905,-5.1865,-5.1852,-5.1974,-5.1985,-5.2047,-5.208,-5.2042,-5.2228,-5.2192,-5.2121,-5.2007,-5.2206,-5.2283,-5.2315,-5.1895,-5.1891,-5.1888,-5.1886,0,0,-5.1853,-5.187,-5.1904,-5.1924,-5.1947,-5.201,-5.2112,-5.2171,-5.2216,-5.2251,-5.2335,-5.2435,-5.2369,-5.24,-5.2363,-5.244,-5.2633,-5.2359,-5.2359,-5.2411,-5.284,-5.2894,-5.2932,-5.2591,-5.2597,-5.2602,-5.2838,0,-5.2085,-5.2259,-5.2216,-5.2389,-5.2465,-5.2377,-5.2466,-5.249,-5.2481,-5.2544,-5.2532,-5.2605,-5.2512,-5.253,-5.2602,-5.2595,-5.2719,-5.2577,-5.267,-5.2674,-5.2667,-5.2972,-5.303,-5.3252,-5.2867,-5.2872,-5.2876,0,-5.2379,-5.2426,-5.2606,-5.2617,-5.2648,-5.2728,-5.278,-5.2841,-5.2866,-5.2854,-5.2889,-5.2836,-5.2937,-5.2821,-5.2959,-5.2864,-5.2899,-5.2901,-5.2908,-5.2916,-5.2788,-5.299,-5.3321,-5.3355,-5.2923,-5.2919,-5.2916,0,-5.2604,-5.2711,-5.2833,-5.2853,-5.2869,-5.2928,-5.2937,-5.2956,-5.2995,-5.304,-5.3065,-5.3121,-5.3152,-5.3197,-5.3162,-5.3081,-5.3306,-5.3187,-5.3299,-5.3301,-5.3352,-5.3349,-5.3696,-5.3373,-5.3372,-5.3372,-5.3371,0,-5.2869,-5.2983,-5.2935,-5.301,-5.3136,-5.3085,-5.321,-5.3209,-5.3227,-5.3301,-5.3228,-5.3299,-5.3247,-5.3314,-5.3286,-5.3405,-5.342,-5.3413,-5.3405,-5.342,-5.3422,-5.3444,-5.3428,-5.338,-5.3379,-5.3377,-5.3375,0,-5.3142,-5.3114,-5.3242,-5.3246,-5.325,-5.3342,-5.3346,-5.3416,-5.34,-5.3495,-5.3514,-5.349,-5.3565,-5.3533,-5.3612,-5.3593,-5.3746,-5.3717,-5.3738,-5.3731,-5.3845,-5.3836,-5.4219,-5.4267,-5.3913,-5.3916,-5.3919,0,-5.3314,-5.3399,-5.3413,-5.3457,-5.3472,-5.3544,-5.3583,-5.3536,-5.358,-5.3615,-5.3681,-5.3749,-5.3801,-5.3924,-5.3914,-5.3974,-5.3946,-5.4077,-5.3955,-5.3968,-5.395,-5.3946,-5.3954,-5.4102,-5.4106,-5.4109,-5.4112,0,-5.3621,-5.3603,-5.3662,-5.3718,-5.3767,-5.3808,-5.3843,-5.3883,-5.3837,-5.389,-5.3965,-5.4006,-5.4086,-5.4155,-5.4208,-5.4217,-5.4158,-5.415,-5.4179,-5.4197,-5.4206,-5.4204,-5.3806,-5.4142,-5.4139,-5.4136,-5.4135,-5.4134,-5.3849,-5.3922,-5.3943,-5.4012,-5.4033,-5.4067,-5.4133,-5.4126,-5.4188,-5.4249,-5.4217,-5.4305,-5.4328,-5.4393,-5.4411,-5.4479,-5.4428,-5.447,-5.4481,-5.4492,-5.4508,-5.4194,-5.4488,-5.4487,-5.4486,-5.4485,-5.4485,0,-5.4154,-5.4163,-5.4227,-5.4278,-5.4332,-5.4271,-5.4306,-5.4356,-5.4434,-5.446,-5.4513,-5.4599,-5.4666,-5.4661,-5.4722,-5.4777,-5.4752,-5.4795,-5.4791,-5.4795,-5.455,-5.4519,-5.4815,-5.4815,-5.4815,-5.4815,-5.4815,-5.4815,-5.4319,-5.4439,-5.4424,-5.4553,-5.4561,-5.4646,-5.4672,-5.4703,-5.4724,-5.4824,-5.4879,-5.4875,-5.4889,-5.495,-5.5008,-5.5005,-5.5032,-5.5086,-5.5073,-5.4844,-5.4812,-5.4781,-5.4751,-5.5091,-5.5092,-5.5312,-5.5314,-5.5316]},{"header":{"parameterUnit":"m.s-1","parameterCategory":1,"la1":30.2991,"la2":30.254,"lo1":-89.0895,"lo2":-89.0444,"dy":0.0017,"dx":0.0017,"nx":28,"ny":28,"refTime":"2024-11-30T03:00:00:Z","depth":0,"parameterNumber":3,"parameterNumberName":"V-component_of_WINDS"},"data":[0,0,0,0,0,0,0,0,0,0,0,0,0,0,0,0,0,0,0,0,0,0,0,0,0,0,0,0,0,0,0,0,0,0,0,0,0,0,0,0,0,0,0,0,0,0,0,0,0,0,0,0,0,0,0,0,0,0,-4.0184,-4.0184,0,-4.0211,-4.0212,-4.0212,-4.0169,-4.0168,-4.0166,-4.0165,-4.0192,-4.0194,-4.0196,0,0,0,0,0,0,0,0,0,0,0,0,0,-4.0092,-4.0094,-4.0184,-4.0184,-4.0185,-4.0211,-4.0212,-4.0212,-4.0169,-4.0168,-4.0166,-4.0164,-4.0191,-4.0193,-4.0196,0,0,0,0,0,0,0,0,0,0,0,0,0,-4.0127,-4.0094,-4.0184,-4.0167,-4.0165,-4.0211,-4.0212,-4.0212,-4.017,-4.0168,-4.0165,-4.0163,-4.019,-4.0193,-4.0196,-4.026,0,0,-4.0206,-4.0207,0,0,0,0,0,0,0,0,-4.0125,-4.013,-4.0169,-4.0168,-4.0167,-4.0185,-4.0189,-4.0228,-4.017,-4.0168,-4.0165,-4.0162,-4.0191,-4.0194,-4.0204,-4.0261,-4.0262,-4.0206,-4.0208,-4.0209,-4.021,0,0,0,0,0,0,0,-4.0123,-4.0129,-4.0195,-4.0169,-4.0168,-4.0157,-4.0159,-4.0196,-4.0192,-4.0168,-4.0165,-4.0169,-4.019,-4.0201,-4.0204,-4.0263,-4.0206,-4.0209,-4.0211,-4.0212,-4.0371,-4.0373,0,0,0,0,0,0,-4.0123,-4.0127,-4.0194,-4.0196,-4.014,-4.016,-4.0163,-4.0181,-4.0191,-4.0191,-4.0171,-4.0167,-4.0197,-4.0201,-4.0205,-4.0279,-4.0209,-4.0212,-4.0214,-4.0369,-4.0372,-4.0374,0,0,0,0,0,0,-4.0121,-4.0129,-4.0193,-4.0161,-4.0168,-4.0164,-4.0185,-4.0183,-4.0194,-4.0193,-4.0192,-4.0183,-4.0195,-4.0201,-4.0246,-4.0279,-4.0214,-4.0217,-4.0366,-4.037,-4.0373,-4.0427,0,0,0,0,0,0,-4.0118,-4.0129,-4.0154,-4.0161,-4.017,-4.0235,-4.0187,-4.0185,-4.0199,-4.0195,-4.0204,-4.0204,-4.0194,-4.0242,-4.0249,-4.0282,-4.0219,-4.0363,-4.0368,-4.0372,-4.0423,-4.0432,-4.0441,0,0,0,0,0,-4.0115,-4.0168,-4.0155,-4.0163,-4.0201,-4.0237,-4.0241,-4.0229,-4.0202,-4.0227,-4.0226,-4.0204,-4.0274,-4.0247,-4.0255,-4.0289,-4.0361,-4.0366,-4.0371,-4.0419,-4.0431,-4.0441,0,0,0,0,0,0,-4.0164,-4.0169,-4.0154,-4.0212,-4.0224,-4.0229,-4.026,-4.0242,-4.0262,-4.0257,-4.024,-4.0243,-4.0291,-4.0295,-4.0264,-4.035,-4.0313,-4.032,-4.0346,-4.0357,-4.0366,-4.0364,-4.0222,0,0,0,0,0,-4.0182,-4.0211,-4.0213,-4.0263,-4.027,-4.0264,-4.0279,-4.0268,-4.028,-4.0285,-4.0288,-4.03,-4.0324,-4.0341,-4.0364,-4.0423,-4.0424,-4.045,-4.0459,-4.0467,-4.0473,-4.0503,-4.0514,-4.0392,-4.0391,-4.0391,0,0,-4.0218,-4.0224,-4.0244,-4.0273,-4.0282,-4.0311,-4.0269,-4.0302,-4.0324,-4.029,-4.0333,-4.0336,-4.0348,-4.04,-4.0423,-4.0404,-4.0507,-4.0474,-4.048,-4.0482,-4.0509,-4.0521,-4.0531,-4.0395,-4.0394,-4.0394,0,0,-4.0299,-4.0308,-4.0349,-4.0358,-4.0371,-4.0366,-4.0376,-4.0384,-4.0384,-4.0427,-4.0402,-4.0427,-4.047,-4.0479,-4.049,-4.0572,-4.0551,-4.058,-4.0627,-4.0656,-4.0665,-4.0674,-4.0702,-4.0712,-4.0586,-4.0586,-4.0586,0,-4.0343,-4.0387,-4.0373,-4.0408,-4.042,-4.0392,-4.0433,-4.0442,-4.0462,-4.0471,-4.045,-4.0502,-4.0508,-4.0561,-4.0581,-4.0591,-4.0601,-4.0579,-4.0665,-4.0674,-4.0681,-4.0708,-4.0718,-4.059,-4.0589,-4.0589,-4.0589,0,-4.0439,-4.047,-4.0502,-4.0521,-4.0537,-4.0575,-4.0566,-4.0584,-4.0572,-4.0569,-4.0612,-4.0618,-4.0641,-4.0652,-4.0641,-4.0703,-4.0691,-4.0668,-4.063,-4.0696,-4.0721,-4.0731,-4.0594,-4.0593,-4.0592,-4.0591,0,0,-4.0553,-4.0562,-4.0574,-4.0582,-4.0593,-4.0616,-4.0652,-4.0674,-4.0689,-4.0703,-4.0732,-4.0769,-4.0747,-4.0758,-4.0747,-4.0773,-4.0836,-4.0746,-4.0746,-4.0762,-4.0903,-4.0919,-4.0932,-4.0822,-4.0824,-4.0826,-4.0901,0,-4.0632,-4.0694,-4.0682,-4.0742,-4.0769,-4.0741,-4.0772,-4.0781,-4.0779,-4.0801,-4.0799,-4.0824,-4.0794,-4.0801,-4.0825,-4.0823,-4.0864,-4.0818,-4.0848,-4.0849,-4.0845,-4.0945,-4.0963,-4.1034,-4.0911,-4.0913,-4.0914,0,-4.0734,-4.0751,-4.0814,-4.0819,-4.083,-4.0858,-4.0876,-4.0898,-4.0908,-4.0904,-4.0916,-4.09,-4.0934,-4.0896,-4.0942,-4.0911,-4.0922,-4.0923,-4.0925,-4.0927,-4.0885,-4.0948,-4.1056,-4.1067,-4.0929,-4.0928,-4.0927,0,-4.0808,-4.0848,-4.089,-4.0897,-4.0905,-4.0925,-4.0928,-4.0936,-4.0949,-4.0965,-4.0973,-4.0993,-4.1004,-4.1019,-4.1007,-4.0981,-4.1055,-4.1016,-4.1051,-4.1052,-4.1068,-4.1067,-4.1178,-4.1077,-4.1077,-4.1077,-4.1076,0,-4.0898,-4.0937,-4.0923,-4.0949,-4.0991,-4.0976,-4.1018,-4.1019,-4.1025,-4.105,-4.1027,-4.105,-4.1034,-4.1056,-4.1048,-4.1086,-4.1091,-4.1088,-4.1085,-4.109,-4.109,-4.1097,-4.1091,-4.1079,-4.1079,-4.1078,-4.1078,0,-4.0989,-4.0981,-4.1025,-4.1028,-4.1029,-4.106,-4.1062,-4.1085,-4.1081,-4.1112,-4.1119,-4.1112,-4.1136,-4.1126,-4.1152,-4.1146,-4.1195,-4.1186,-4.1192,-4.1189,-4.1224,-4.1221,-4.1343,-4.1358,-4.1248,-4.1249,-4.125,0,-4.1046,-4.1076,-4.1081,-4.1096,-4.1101,-4.1126,-4.1139,-4.1124,-4.1139,-4.1151,-4.1173,-4.1195,-4.1212,-4.1252,-4.1248,-4.1268,-4.1258,-4.13,-4.1261,-4.1264,-4.1257,-4.1255,-4.1257,-4.1308,-4.1309,-4.131,-4.1311,0,-4.1148,-4.1143,-4.1163,-4.1181,-4.1197,-4.1211,-4.1223,-4.1236,-4.1222,-4.1239,-4.1264,-4.1277,-4.1303,-4.1324,-4.1341,-4.1344,-4.1325,-4.1323,-4.1332,-4.1336,-4.1338,-4.1336,-4.1212,-4.132,-4.1319,-4.1318,-4.1318,-4.1318,-4.1223,-4.1247,-4.1254,-4.1277,-4.1284,-4.1295,-4.1317,-4.1314,-4.1334,-4.1354,-4.1344,-4.1372,-4.1379,-4.14,-4.1405,-4.1426,-4.141,-4.1423,-4.1426,-4.1429,-4.1433,-4.1335,-4.1429,-4.1429,-4.1429,-4.1428,-4.1428,0,-4.1323,-4.1326,-4.1347,-4.1363,-4.1381,-4.1361,-4.1372,-4.1388,-4.1413,-4.1421,-4.1438,-4.1465,-4.1485,-4.1484,-4.1502,-4.1519,-4.1511,-4.1524,-4.1523,-4.1523,-4.1448,-4.1437,-4.1531,-4.1531,-4.1531,-4.1531,-4.1531,-4.1531,-4.1377,-4.1416,-4.141,-4.1452,-4.1454,-4.1481,-4.1489,-4.1498,-4.1505,-4.1536,-4.1553,-4.1551,-4.1555,-4.1573,-4.1591,-4.159,-4.1597,-4.1614,-4.161,-4.1539,-4.1529,-4.1519,-4.1509,-4.1616,-4.1616,-4.1683,-4.1684,-4.1684]}]]